Location: Izdebno
(52.6670°N, 16.2170°E)
Time: 02:36:02
(UTC+02:00)

Transit 4A - Pass Details

Date: 01 March 2024
Orbit: 871 x 972 km, 66.8° (Epoch: 22 April)

Event Time Altitude Azimuth Distance (km) Brightness Sun altitude
Rises 22:45:05 0° 167° (SSE) 3,595 - -41.5°
Reaches altitude 10° 22:48:19 10° 151° (SSE) 2,638 - -41.7°
Maximum altitude 22:52:32 20° 107° (ESE) 2,009 - -42.0°
Drops below altitude 10° 22:56:42 10° 63° (ENE) 2,601 - -42.2°
Exits shadow 22:59:35 - 48° (NE) 3,447 11.1 -42.4°
Sets 22:59:51 0° 47° (NE) 3,529 11.1 -42.4°
